This is the latest recevied weather packets stored in our database for station/object SQ9IAB-13. If no packets are shown the sender has not sent any weather packets the latest 1 day(s).
| Time | Temp. | Humidity | Pressure | Rain* | Wind** | Luminosity | Snow |
|---|---|---|---|---|---|---|---|
| 1778064567 | 28.33° C | 29% | 996.2 hPa | 0 mm | - | - | - |
| 1778064507 | 28.33° C | 30% | 996 hPa | 0 mm | - | - | - |
| 1778064445 | 28.33° C | 29% | 996 hPa | 0 mm | - | - | - |
| 1778064205 | 28.33° C | 30% | 996.1 hPa | 0 mm | - | - | - |
| 1778064147 | 27.78° C | 30% | 996 hPa | 0 mm | - | - | - |
| 1778064025 | 27.78° C | 30% | 995.9 hPa | 0 mm | - | - | - |
| 1778063907 | 27.78° C | 29% | 996.2 hPa | 0 mm | - | - | - |
| 1778063785 | 28.33° C | 29% | 996.2 hPa | 0 mm | - | - | - |
| 1778063665 | 28.33° C | 30% | 996.3 hPa | 0 mm | - | - | - |
| 1778063547 | 28.33° C | 30% | 996.1 hPa | 0 mm | - | - | - |
| 1778063245 | 27.78° C | 30% | 996 hPa | 0 mm | - | - | - |
| 1778063185 | 27.78° C | 30% | 996.1 hPa | 0 mm | - | - | - |
| 1778063125 | 27.78° C | 30% | 996 hPa | 0 mm | - | - | - |
| 1778063066 | 27.78° C | 30% | 996.3 hPa | 0 mm | - | - | - |
| 1778063006 | 27.78° C | 30% | 996.3 hPa | 0 mm | - | - | - |
| 1778062946 | 27.78° C | 30% | 996.1 hPa | 0 mm | - | - | - |
| 1778062766 | 27.22° C | 32% | 996.1 hPa | 0 mm | - | - | - |
| 1778062525 | 27.78° C | 30% | 996 hPa | 0 mm | - | - | - |
| 1778062346 | 27.78° C | 30% | 996.1 hPa | 0 mm | - | - | - |
| 1778062286 | 27.78° C | 30% | 996.1 hPa | 0 mm | - | - | - |
| 1778062226 | 27.78° C | 30% | 996.2 hPa | 0 mm | - | - | - |
| 1778061986 | 27.78° C | 30% | 996.1 hPa | 0 mm | - | - | - |
| 1778061926 | 27.22° C | 34% | 996.1 hPa | 0 mm | - | - | - |
| 1778061865 | 27.22° C | 34% | 996.1 hPa | 0 mm | - | - | - |
| 1778061807 | 27.22° C | 34% | 996.1 hPa | 0 mm | - | - | - |
* Rain latest hour (hover to see other rain measurements)
** Current wind speed in m/s (hover to see current wind gust speed)